| time (UTC) | temp C | wind direction | speed KPH | gust KPH | rain 1hr cm | rain 24hr cm | rain mn cm | humidity % | barometer mb |
| 20260507234517 | 20 | 96 | 0.0 | 4.8 | 0.00 | 0.00 | 0.00 | 62 | 1008.8 |
| 20260507233517 | 20 | 148 | 0.0 | 1.6 | 0.00 | 0.00 | 0.00 | 63 | 1009.0 |
| 20260507232537 | 19 | 196 | 0.0 | 3.2 | 0.00 | 0.00 | 0.00 | 64 | 1009.2 |
| 20260507231517 | 19 | 155 | 0.0 | 0.0 | 0.00 | 0.00 | 0.00 | 66 | 1009.4 |
| 20260507230517 | 19 | 167 | 0.0 | 1.6 | 0.00 | 0.00 | 0.00 | 66 | 1009.2 |
| 20260507225516 | 19 | 153 | 0.0 | 1.6 | 0.00 | 0.00 | 0.00 | 67 | 1008.8 |
| 20260507224517 | 19 | 136 | 8.0 | 8.0 | 0.00 | 0.00 | 0.00 | 67 | 1008.9 |
| 20260507223516 | 19 | 140 | 8.0 | 8.0 | 0.00 | 0.00 | 0.00 | 67 | 1008.9 |
| 20260507222516 | 19 | 153 | 0.0 | 6.4 | 0.00 | 0.00 | 0.00 | 67 | 1008.8 |
| 20260507221536 | 19 | 143 | 0.0 | 6.4 | 0.00 | 0.00 | 0.00 | 67 | 1008.9 |
| 20260507220516 | 19 | 157 | 0.0 | 3.2 | 0.00 | 0.00 | 0.00 | 68 | 1009.0 |
| 20260507215517 | 19 | 150 | 4.8 | 4.8 | 0.00 | 0.00 | 0.00 | 68 | 1009.1 |
| 20260507214515 | 19 | 146 | 11.3 | 14.5 | 0.00 | 0.00 | 0.00 | 67 | 1009.4 |
| 20260507213515 | 19 | 164 | 0.0 | 6.4 | 0.00 | 0.00 | 0.00 | 67 | 1009.2 |
| 20260507212515 | 19 | 145 | 0.0 | 8.0 | 0.00 | 0.00 | 0.00 | 67 | 1009.0 |
| 20260507211515 | 19 | 142 | 0.0 | 8.0 | 0.00 | 0.00 | 0.00 | 68 | 1009.2 |
| 20260507210515 | 19 | 169 | 0.0 | 8.0 | 0.00 | 0.00 | 0.00 | 67 | 1009.5 |
| 20260507205515 | 19 | 173 | 0.0 | 14.5 | 0.00 | 0.00 | 0.00 | 67 | 1009.5 |
| 20260507204515 | 19 | 142 | 0.0 | 8.0 | 0.00 | 0.00 | 0.00 | 67 | 1009.1 |
| 20260507203514 | 19 | 135 | 1.6 | 16.1 | 0.00 | 0.00 | 0.00 | 67 | 1009.0 |
| 20260507202514 | 19 | 144 | 3.2 | 16.1 | 0.00 | 0.00 | 0.00 | 67 | 1008.9 |
| 20260507201514 | 19 | 138 | 6.4 | 12.9 | 0.00 | 0.00 | 0.00 | 67 | 1009.2 |
| 20260507110505 | 24 | 254 | 1.6 | 11.3 | 0.00 | 0.00 | 0.00 | 33 | 1009.6 |
| 20260507105505 | 24 | 143 | 0.0 | 9.7 | 0.00 | 0.00 | 0.00 | 34 | 1009.8 |
| 20260507104506 | 24 | 43 | 4.8 | 11.3 | 0.00 | 0.00 | 0.00 | 30 | 1009.4 |
| 20260507103556 | 24 | 159 | 8.0 | 16.1 | 0.00 | 0.00 | 0.00 | 30 | 1009.8 |
| 20260507102505 | 23 | 40 | 6.4 | 17.7 | 0.00 | 0.00 | 0.00 | 29 | 1010.0 |
| 20260507101506 | 23 | 159 | 9.7 | 17.7 | 0.00 | 0.00 | 0.00 | 30 | 1010.2 |
| 20260507100505 | 23 | 65 | 4.8 | 17.7 | 0.00 | 0.00 | 0.00 | 30 | 1009.8 |
| 20260507095504 | 23 | 84 | 6.4 | 17.7 | 0.00 | 0.00 | 0.00 | 30 | 1010.1 |
| 20260507094504 | 23 | 125 | 0.0 | 14.5 | 0.00 | 0.00 | 0.00 | 29 | 1010.3 |
| 20260507093504 | 23 | 94 | 0.0 | 16.1 | 0.00 | 0.00 | 0.00 | 33 | 1010.3 |
| 20260507092504 | 23 | 94 | 4.8 | 6.4 | 0.00 | 0.00 | 0.00 | 32 | 1010.1 |
| 20260507091504 | 23 | 109 | 14.5 | 27.4 | 0.00 | 0.00 | 0.00 | 32 | 1010.3 |
| 20260507090504 | 23 | 96 | 3.2 | 16.1 | 0.00 | 0.00 | 0.00 | 32 | 1010.2 |
| 20260507085503 | 22 | 92 | 12.9 | 27.4 | 0.00 | 0.00 | 0.00 | 32 | 1010.2 |
| 20260507084503 | 22 | 336 | 4.8 | 19.3 | 0.00 | 0.00 | 0.00 | 35 | 1010.4 |
| 20260507083503 | 22 | 174 | 0.0 | 24.1 | 0.00 | 0.00 | 0.00 | 37 | 1010.5 |
| 20260507082523 | 22 | 207 | 1.6 | 22.5 | 0.00 | 0.00 | 0.00 | 38 | 1010.7 |
| 20260507081503 | 22 | 130 | 1.6 | 12.9 | 0.00 | 0.00 | 0.00 | 38 | 1010.6 |
| 20260507080503 | 22 | 138 | 14.5 | 14.5 | 0.00 | 0.00 | 0.00 | 40 | 1010.7 |
| 20260507075503 | 21 | 86 | 16.1 | 25.7 | 0.00 | 0.00 | 0.00 | 40 | 1010.8 |
| 20260507074502 | 21 | 87 | 12.9 | 29.0 | 0.00 | 0.00 | 0.00 | 41 | 1011.0 |
| 20260507073502 | 21 | 74 | 12.9 | 24.1 | 0.00 | 0.00 | 0.00 | 42 | 1011.3 |
| 20260507072502 | 21 | 82 | 4.8 | 6.4 | 0.00 | 0.00 | 0.00 | 44 | 1011.3 |
| 20260507071502 | 20 | 104 | 0.0 | 16.1 | 0.00 | 0.00 | 0.00 | 44 | 1011.4 |
| 20260507070503 | 19 | 79 | 0.0 | 11.3 | 0.00 | 0.00 | 0.00 | 54 | 1011.6 |
| 20260507065501 | 19 | 240 | 0.0 | 4.8 | 0.00 | 0.00 | 0.00 | 56 | 1011.5 |
| 20260507064501 | 19 | 232 | 0.0 | 4.8 | 0.00 | 0.00 | 0.00 | 56 | 1011.5 |
| 20260507063501 | 20 | 157 | 0.0 | 4.8 | 0.00 | 0.00 | 0.00 | 47 | 1011.6 |
| 20260507062501 | 19 | 142 | 0.0 | 6.4 | 0.00 | 0.00 | 0.00 | 47 | 1011.8 |
| 20260507061502 | 19 | 143 | 8.0 | 14.5 | 0.00 | 0.00 | 0.00 | 46 | 1011.7 |
| 20260507060501 | 19 | 150 | 1.6 | 8.0 | 0.00 | 0.00 | 0.00 | 44 | 1011.7 |
| 20260507055501 | 18 | 77 | 0.0 | 4.8 | 0.00 | 0.00 | 0.00 | 50 | 1011.8 |
| 20260507054500 | 18 | 134 | 0.0 | 0.0 | 0.00 | 0.00 | 0.00 | 51 | 1011.8 |
| 20260507053500 | 18 | 134 | 0.0 | 0.0 | 0.00 | 0.00 | 0.00 | 48 | 1012.0 |
| 20260507052500 | 18 | 123 | 0.0 | 0.0 | 0.00 | 0.00 | 0.00 | 47 | 1011.8 |
| 20260507051500 | 18 | 123 | 0.0 | 0.0 | 0.00 | 0.00 | 0.00 | 46 | 1011.7 |
| 20260507050500 | 17 | 186 | 0.0 | 0.0 | 0.00 | 0.00 | 0.00 | 45 | 1011.7 |
| 20260507045500 | 17 | 186 | 0.0 | 0.0 | 0.00 | 0.00 | 0.00 | 46 | 1011.6 |
| 20260507044459 | 17 | 169 | 0.0 | 0.0 | 0.00 | 0.00 | 0.00 | 48 | 1011.7 |
| 20260507043459 | 17 | 169 | 0.0 | 0.0 | 0.00 | 0.00 | 0.00 | 48 | 1011.6 |
| 20260507042459 | 17 | 163 | 0.0 | 0.0 | 0.00 | 0.00 | 0.00 | 49 | 1011.5 |
| 20260507041459 | 17 | 163 | 0.0 | 0.0 | 0.00 | 0.00 | 0.00 | 46 | 1011.6 |
| 20260507040459 | 17 | 163 | 0.0 | 3.2 | 0.00 | 0.00 | 0.00 | 48 | 1011.6 |
| 20260507035459 | 17 | 192 | 0.0 | 0.0 | 0.00 | 0.00 | 0.00 | 47 | 1011.8 |
| 20260507034459 | 17 | 180 | 0.0 | 4.8 | 0.00 | 0.00 | 0.00 | 45 | 1011.8 |
| 20260507033459 | 17 | 153 | 0.0 | 0.0 | 0.00 | 0.00 | 0.00 | 50 | 1011.8 |
| 20260507032500 | 17 | 153 | 0.0 | 0.0 | 0.00 | 0.00 | 0.00 | 49 | 1011.5 |
| 20260507031458 | 17 | 153 | 0.0 | 0.0 | 0.00 | 0.00 | 0.00 | 48 | 1011.6 |
| 20260507030458 | 17 | 153 | 0.0 | 0.0 | 0.00 | 0.00 | 0.00 | 48 | 1011.8 |
| 20260507025458 | 18 | 153 | 0.0 | 3.2 | 0.00 | 0.00 | 0.00 | 46 | 1011.7 |
| 20260507024458 | 18 | 152 | 0.0 | 9.7 | 0.00 | 0.00 | 0.00 | 45 | 1011.6 |
| 20260507023458 | 18 | 115 | 0.0 | 3.2 | 0.00 | 0.00 | 0.00 | 44 | 1011.8 |
| 20260507022457 | 18 | 143 | 3.2 | 3.2 | 0.00 | 0.00 | 0.00 | 44 | 1011.7 |
| 20260507021457 | 18 | 175 | 0.0 | 1.6 | 0.00 | 0.00 | 0.00 | 43 | 1011.7 |
| 20260507020457 | 18 | 205 | 0.0 | 0.0 | 0.00 | 0.00 | 0.00 | 44 | 1011.7 |
| 20260507015457 | 18 | 209 | 0.0 | 0.0 | 0.00 | 0.00 | 0.00 | 45 | 1011.7 |
| 20260507014457 | 19 | 209 | 0.0 | 3.2 | 0.00 | 0.00 | 0.00 | 42 | 1011.7 |
| 20260507013457 | 19 | 146 | 0.0 | 0.0 | 0.00 | 0.00 | 0.00 | 42 | 1011.6 |
| 20260507012456 | 19 | 109 | 0.0 | 4.8 | 0.00 | 0.00 | 0.00 | 42 | 1011.4 |
| 20260507011456 | 19 | 147 | 0.0 | 0.0 | 0.00 | 0.00 | 0.00 | 42 | 1011.4 |
| 20260507010456 | 19 | 236 | 3.2 | 4.8 | 0.00 | 0.00 | 0.00 | 42 | 1011.7 |
| 20260507005456 | 19 | 150 | 0.0 | 0.0 | 0.00 | 0.00 | 0.00 | 43 | 1011.6 |
| 20260507004456 | 19 | 133 | 0.0 | 4.8 | 0.00 | 0.00 | 0.00 | 43 | 1011.5 |
| 20260507003456 | 19 | 147 | 0.0 | 3.2 | 0.00 | 0.00 | 0.00 | 45 | 1011.6 |
| 20260507002455 | 19 | 175 | 0.0 | 9.7 | 0.00 | 0.00 | 0.00 | 44 | 1011.6 |
| 20260507001455 | 19 | 209 | 4.8 | 8.0 | 0.00 | 0.00 | 0.00 | 44 | 1011.6 |
| 20260507000455 | 19 | 204 | 1.6 | 4.8 | 0.00 | 0.00 | 0.00 | 45 | 1011.8 |
| 20260506235455 | 19 | 194 | 1.6 | 6.4 | 0.00 | 0.00 | 0.00 | 44 | 1011.8 |